Flag for U.S.A. Weather past 2 weeks in Long Beach, California, U.S.A.

Now
77 °F

Sunny.


Feels Like: 78 °F
Forecast: 59 / 76 °F
Wind: 10 mph from Northwest

Location: Long Beach Airport

Current Time: Mar 28, 2015 at 6:49:24 PM

Latest Report: Mar 28, 2015 at 5:53 PM


Visibility: 10 mi

Pressure: 29.98 "Hg

Humidity: 47%

Dew point: 55 °F

Location of Long BeachLocation

Historic Weather in Long Beach — Graph

°F

Long Beach temperature yesterday

Maximum temperature yesterday: 86 °F (at 2:53 PM)
Minimum temperature yesterday: 60 °F (at 4:53 AM)
Average temperature yesterday: 72 °F

Past Weeks' High & Low Weather Summary

 TemperatureHumidityPressure
High93 °F (Mar 26, 12:53 PM)93% (Mar 28, 3:53 AM)30.19 "Hg (Mar 28, 3:53 AM)
Low57 °F (Mar 24, 4:53 AM)10% (Mar 26, 12:53 PM)29.86 "Hg (Mar 16, 5:53 PM)
Average69 °F59%30.02 "Hg
* Reported Mar 13 4:53 PM — Mar 28 4:53 PM, Long Beach, Weather by CustomWeather, © 2015

Note: Actual official high and low records may vary slightly from our data, if they occured in-between our weather recording intervals... More about our weather records

Advertising

Long Beach weather history for previous 24 hours

 ConditionsComfort  
Time TempWeatherWind HumidityBarometerVisibility
4:53 PM
Sat, Mar 28
79 °FSunny.7 mph35%29.98 "Hg10 mi
3:53 PM77 °FSunny.8 mph52%29.99 "Hg10 mi
2:53 PM75 °FSunny.9 mph58%30.01 "Hg10 mi
1:53 PM75 °FSunny.6 mph54%30.03 "Hg10 mi
12:53 PM72 °FSunny.6 mph61%30.06 "Hg10 mi
11:53 AM70 °FSunny.7 mph64%30.08 "Hg10 mi
10:53 AM69 °FSunny.6 mph68%30.08 "Hg10 mi
9:53 AM69 °FPassing clouds.3 mph68%30.08 "Hg8 mi
8:53 AM62 °FFog.No wind86%30.08 "Hg6 mi
7:53 AM61 °FFog.5 mph90%30.06 "Hg6 mi
7:00 AM62 °FLow clouds.3 mph90%30.06 "Hg8 mi
6:53 AM62 °FOvercast.5 mph90%30.06 "Hg8 mi
5:53 AM62 °FLow clouds.5 mph90%30.05 "Hg9 mi
4:53 AM61 °FClear.No wind90%30.05 "Hg9 mi
3:53 AM60 °FClear.3 mph93%30.04 "Hg9 mi
2:53 AM61 °FClear.6 mph90%30.04 "Hg9 mi
1:53 AM61 °FClear.5 mph78%30.04 "Hg10 mi
12:53 AM64 °FClear.No wind68%30.05 "Hg10 mi
11:53 PM
Fri, Mar 27
66 °FClear.3 mph63%30.05 "Hg10 mi
10:53 PM67 °FClear.5 mph61%30.05 "Hg10 mi
9:53 PM68 °FClear.5 mph53%30.03 "Hg10 mi
8:53 PM71 °FClear.No wind44%30.01 "Hg10 mi
7:53 PM73 °FSunny.8 mph38%30.00 "Hg10 mi
6:53 PM76 °FSunny.10 mph32%29.99 "Hg10 mi
Weather by CustomWeather, © 2015

See weather overviewHow to use our weather pages